• In Czech Republic
  • List of Countries
  • For 7 days
  • Water Temperature
  • Satellite Maps
  • Weather Map
  • Weather Widgets
  • user-avatar
    Login

    Hourly Weather Ordino

    Today, 18 August, Friday

    Time Temperature Precipitation Wind Pressure Humidity
    00:00 +15°C° 0 mm 1 mps 637 mmHg 78%
    01:00 +15°C° 0 mm 1 mps 637 mmHg 77%
    02:00 +15°C° 0 mm 1 mps 637 mmHg 77%
    03:00 +15°C° 0 mm 1 mps 637 mmHg 76%
    04:00 +15°C° 0 mm 1 mps 637 mmHg 75%
    05:00 +15°C° 0 mm 1 mps 637 mmHg 73%
    06:00 +18°C° 0 mm 1 mps 637 mmHg 73%
    07:00 +20°C° 0 mm 1 mps 638 mmHg 64%
    08:00 +21°C° 0 mm 2 mps 639 mmHg 56%
    09:00 +24°C° 0 mm 2 mps 639 mmHg 47%
    10:00 +25°C° 0 mm 2 mps 639 mmHg 45%
    11:00 +26°C° 0 mm 3 mps 640 mmHg 43%
    12:00 +27°C° 0 mm 3 mps 640 mmHg 41%
    13:00 +26°C° 0.1 mm 3 mps 639 mmHg 44%
    14:00 +26°C° 0.1 mm 3 mps 639 mmHg 47%
    15:00 +25°C° 0.1 mm 3 mps 639 mmHg 50%
    16:00 +24°C° 0.4 mm 3 mps 638 mmHg 58%
    17:00 +21°C° 0.4 mm 2 mps 638 mmHg 66%
    18:00 +19°C° 0.4 mm 2 mps 638 mmHg 73%
    19:00 +18°C° 0.4 mm 2 mps 638 mmHg 79%
    20:00 +17°C° 0.4 mm 2 mps 638 mmHg 84%
    21:00 +16°C° 0.4 mm 2 mps 638 mmHg 89%
    22:00 +15°C° 0.3 mm 2 mps 638 mmHg 90%
    23:00 +15°C° 0.3 mm 2 mps 638 mmHg 91%

    Tomorrow, 19 August, Saturday

    Time Temperature Precipitation Wind Pressure Humidity
    00:00 +15°C° 0.3 mm 2 mps 638 mmHg 92%
    01:00 +14°C° 0.1 mm 2 mps 638 mmHg 92%
    02:00 +14°C° 0.1 mm 2 mps 637 mmHg 92%
    03:00 +14°C° 0.1 mm 2 mps 637 mmHg 93%
    04:00 +13°C° 0 mm 2 mps 637 mmHg 92%
    05:00 +13°C° 0 mm 2 mps 638 mmHg 92%
    06:00 +13°C° 0 mm 2 mps 638 mmHg 91%
    07:00 +14°C° 0 mm 2 mps 638 mmHg 86%
    08:00 +15°C° 0 mm 2 mps 639 mmHg 81%
    09:00 +16°C° 0 mm 2 mps 639 mmHg 76%
    10:00 +17°C° 0 mm 2 mps 640 mmHg 70%
    11:00 +19°C° 0 mm 2 mps 640 mmHg 63%
    12:00 +20°C° 0 mm 2 mps 640 mmHg 57%
    13:00 +20°C° 0.1 mm 2 mps 640 mmHg 59%
    14:00 +19°C° 0.1 mm 2 mps 640 mmHg 61%
    15:00 +19°C° 0.1 mm 2 mps 639 mmHg 63%
    16:00 +18°C° 0.2 mm 2 mps 639 mmHg 66%
    17:00 +17°C° 0.2 mm 2 mps 639 mmHg 69%
    18:00 +16°C° 0.2 mm 2 mps 639 mmHg 72%
    19:00 +15°C° 0 mm 2 mps 639 mmHg 75%
    20:00 +14°C° 0 mm 2 mps 639 mmHg 79%
    21:00 +12°C° 0 mm 2 mps 639 mmHg 82%
    22:00 +12°C° 0 mm 2 mps 638 mmHg 82%
    23:00 +12°C° 0 mm 2 mps 638 mmHg 82%

    Day after tomorrow, 20 August, Sunday

    Time Temperature Precipitation Wind Pressure Humidity
    00:00 +10°C° 0 mm 2 mps 638 mmHg 82%
    01:00 +10°C° 0 mm 2 mps 638 mmHg 82%
    02:00 +10°C° 0 mm 2 mps 638 mmHg 82%
    03:00 +9°C° 0 mm 2 mps 637 mmHg 82%
    04:00 +9°C° 0 mm 2 mps 638 mmHg 80%
    05:00 +9°C° 0 mm 2 mps 638 mmHg 78%
    06:00 +9°C° 0 mm 2 mps 638 mmHg 77%
    07:00 +13°C° 0 mm 2 mps 639 mmHg 64%
    08:00 +16°C° 0 mm 2 mps 640 mmHg 50%
    09:00 +19°C° 0 mm 2 mps 641 mmHg 37%
    10:00 +20°C° 0 mm 2 mps 642 mmHg 34%
    11:00 +21°C° 0 mm 2 mps 642 mmHg 31%
    12:00 +24°C° 0 mm 2 mps 642 mmHg 28%
    13:00 +24°C° 0 mm 2 mps 642 mmHg 28%
    14:00 +24°C° 0 mm 2 mps 642 mmHg 29%
    15:00 +24°C° 0 mm 2 mps 641 mmHg 29%
    16:00 +23°C° 0 mm 2 mps 641 mmHg 35%
    17:00 +20°C° 0 mm 2 mps 640 mmHg 42%
    18:00 +19°C° 0 mm 1 mps 639 mmHg 48%
    19:00 +18°C° 0 mm 1 mps 639 mmHg 50%
    20:00 +15°C° 0 mm 1 mps 639 mmHg 53%
    21:00 +13°C° 0 mm 1 mps 639 mmHg 55%
    22:00 +13°C° 0 mm 1 mps 638 mmHg 52%
    23:00 +13°C° 0 mm 1 mps 638 mmHg 50%

    21 August, Monday

    Time Temperature Precipitation Wind Pressure Humidity
    00:00 +13°C° 0 mm 1 mps 638 mmHg 47%
    01:00 +13°C° 0 mm 1 mps 638 mmHg 45%
    02:00 +13°C° 0 mm 1 mps 638 mmHg 42%
    03:00 +12°C° 0 mm 1 mps 638 mmHg 40%
    04:00 +13°C° 0 mm 1 mps 638 mmHg 40%
    05:00 +13°C° 0 mm 1 mps 638 mmHg 40%
    06:00 +13°C° 0 mm 1 mps 638 mmHg 41%
    07:00 +16°C° 0 mm 1 mps 639 mmHg 38%
    08:00 +20°C° 0 mm 1 mps 640 mmHg 35%
    09:00 +24°C° 0 mm 1 mps 641 mmHg 32%
    10:00 +25°C° 0 mm 1 mps 641 mmHg 31%
    11:00 +26°C° 0 mm 1 mps 642 mmHg 30%
    12:00 +27°C° 0 mm 1 mps 642 mmHg 29%
    13:00 +27°C° 0 mm 2 mps 641 mmHg 29%
    14:00 +28°C° 0 mm 2 mps 641 mmHg 30%
    15:00 +28°C° 0 mm 2 mps 641 mmHg 31%
    16:00 +26°C° 0 mm 2 mps 640 mmHg 38%
    17:00 +24°C° 0 mm 1 mps 639 mmHg 45%
    18:00 +22°C° 0 mm 1 mps 639 mmHg 52%
    19:00 +21°C° 0 mm 1 mps 638 mmHg 58%
    20:00 +19°C° 0 mm 1 mps 638 mmHg 63%
    21:00 +16°C° 0 mm 1 mps 638 mmHg 69%
    22:00 +16°C° 0 mm 1 mps 637 mmHg 70%
    23:00 +16°C° 0 mm 1 mps 637 mmHg 71%

    22 August, Tuesday

    Time Temperature Precipitation Wind Pressure Humidity
    00:00 +15°C° 0 mm 1 mps 637 mmHg 72%
    01:00 +15°C° 0 mm 1 mps 637 mmHg 72%
    02:00 +15°C° 0 mm 1 mps 637 mmHg 72%
    03:00 +15°C° 0 mm 1 mps 636 mmHg 72%
    04:00 +16°C° 0 mm 1 mps 637 mmHg 71%
    05:00 +16°C° 0 mm 1 mps 637 mmHg 70%
    06:00 +16°C° 0 mm 1 mps 637 mmHg 68%
    07:00 +20°C° 0 mm 1 mps 638 mmHg 59%
    08:00 +23°C° 0 mm 1 mps 639 mmHg 49%
    09:00 +26°C° 0 mm 1 mps 640 mmHg 40%
    10:00 +27°C° 0 mm 2 mps 640 mmHg 37%
    11:00 +28°C° 0 mm 2 mps 640 mmHg 35%
    12:00 +30°C° 0 mm 2 mps 641 mmHg 32%
    13:00 +29°C° 0.1 mm 2 mps 640 mmHg 36%
    14:00 +28°C° 0.1 mm 2 mps 640 mmHg 40%
    15:00 +27°C° 0.1 mm 2 mps 639 mmHg 44%
    16:00 +26°C° 0.2 mm 1 mps 639 mmHg 49%
    17:00 +24°C° 0.2 mm 1 mps 638 mmHg 54%
    18:00 +23°C° 0.2 mm 1 mps 638 mmHg 59%
    19:00 +21°C° 0.3 mm 1 mps 638 mmHg 65%
    20:00 +20°C° 0.3 mm 1 mps 638 mmHg 70%
    21:00 +18°C° 0.3 mm 1 mps 637 mmHg 76%
    22:00 +18°C° 0.1 mm 1 mps 637 mmHg 77%
    23:00 +16°C° 0.1 mm 1 mps 637 mmHg 78%

    23 August, Wednesday

    Time Temperature Precipitation Wind Pressure Humidity
    00:00 +16°C° 0.1 mm 1 mps 637 mmHg 79%
    01:00 +16°C° 0.1 mm 1 mps 637 mmHg 80%
    02:00 +15°C° 0.1 mm 1 mps 637 mmHg 80%
    03:00 +15°C° 0.1 mm 1 mps 637 mmHg 81%
    04:00 +15°C° 0.1 mm 1 mps 637 mmHg 80%
    05:00 +15°C° 0.1 mm 1 mps 637 mmHg 78%
    06:00 +15°C° 0.1 mm 1 mps 638 mmHg 77%
    07:00 +19°C° 0 mm 1 mps 638 mmHg 68%
    08:00 +21°C° 0 mm 1 mps 639 mmHg 60%
    09:00 +24°C° 0 mm 2 mps 640 mmHg 51%
    10:00 +25°C° 0.3 mm 2 mps 641 mmHg 48%
    11:00 +26°C° 0.3 mm 2 mps 641 mmHg 44%
    12:00 +27°C° 0.3 mm 2 mps 641 mmHg 41%
    13:00 +27°C° 0.3 mm 2 mps 641 mmHg 42%
    14:00 +26°C° 0.3 mm 2 mps 640 mmHg 43%
    15:00 +26°C° 0.3 mm 2 mps 640 mmHg 44%
    16:00 +25°C° 0.3 mm 2 mps 640 mmHg 50%
    17:00 +23°C° 0.3 mm 2 mps 639 mmHg 56%
    18:00 +22°C° 0.3 mm 1 mps 639 mmHg 62%
    19:00 +20°C° 0.2 mm 1 mps 638 mmHg 67%
    20:00 +18°C° 0.2 mm 1 mps 638 mmHg 73%
    21:00 +16°C° 0.2 mm 1 mps 638 mmHg 78%
    22:00 +15°C° 0.1 mm 1 mps 638 mmHg 78%
    23:00 +15°C° 0.1 mm 1 mps 637 mmHg 78%
    Show more